This is the latest recevied weather packets stored in our database for station/object KN4AN. If no packets are shown the sender has not sent any weather packets the latest 10 day(s).
| Time | Temp. | Humidity | Pressure | Rain* | Wind** | Luminosity | Snow |
|---|---|---|---|---|---|---|---|
| 1787873613 | 23.89° C | 87% | 1014.5 hPa | 0 mm | - | 17 W/m² | - |
| 1787873308 | 23.89° C | 86% | 1014.5 hPa | 0 mm | - | 22 W/m² | - |
| 1787873007 | 24.44° C | 85% | 1014.7 hPa | 0 mm | - | 28 W/m² | - |
| 1787872703 | 24.44° C | 85% | 1014.4 hPa | 0 mm | - | 35 W/m² | - |
| 1787872398 | 24.44° C | 84% | 1014.4 hPa | 0 mm | - | 46 W/m² | - |
| 1787872093 | 24.44° C | 84% | 1014.3 hPa | 0 mm | - | 55 W/m² | - |
| 1787871787 | 24.44° C | 84% | 1014.3 hPa | 0 mm | - | 55 W/m² | - |
| 1787871482 | 24.44° C | 84% | 1014.4 hPa | 0 mm | - | 55 W/m² | - |
| 1787871178 | 24.44° C | 83% | 1014.5 hPa | 0 mm | - | 67 W/m² | - |
| 1787870877 | 24.44° C | 82% | 1014.5 hPa | 0 mm | - | 67 W/m² | - |
| 1787870572 | 24.44° C | 82% | 1014.3 hPa | 0 mm | - | 65 W/m² | - |
| 1787870268 | 24.44° C | 81% | 1014.1 hPa | 0 mm | - | 60 W/m² | - |
| 1787869968 | 25° C | 81% | 1014.1 hPa | 0 mm | - | 60 W/m² | - |
| 1787869662 | 25° C | 76% | 1014.2 hPa | 0 mm | - | 70 W/m² | - |
| 1787869362 | 25° C | 77% | 1014.1 hPa | 0 mm | - | 78 W/m² | - |
| 1787869062 | 25.56° C | 76% | 1014.3 hPa | 0 mm | - | 92 W/m² | - |
| 1787868765 | 25.56° C | 77% | 1014.1 hPa | 0 mm | - | 79 W/m² | - |
| 1787868459 | 26.11° C | 76% | 1014.2 hPa | 0 mm | - | 83 W/m² | - |
| 1787868158 | 26.67° C | 71% | 1014.1 hPa | 0 mm | - | 127 W/m² | - |
| 1787867854 | 26.67° C | 71% | 1014 hPa | 0 mm | - | 156 W/m² | - |
| 1787867550 | 26.11° C | 74% | 1014.1 hPa | 0 mm | - | 217 W/m² | - |
| 1787867244 | 26.11° C | 76% | 1014 hPa | 0 mm | - | 260 W/m² | - |
| 1787866940 | 26.11° C | 75% | 1014.1 hPa | 0 mm | - | 241 W/m² | - |
| 1787866635 | 26.67° C | 75% | 1014 hPa | 0 mm | - | 227 W/m² | - |
| 1787866333 | 26.67° C | 79% | 1013.8 hPa | 0 mm | - | 241 W/m² | - |
* Rain latest hour (hover to see other rain measurements)
** Current wind speed in m/s (hover to see current wind gust speed)